GW7091 Weather Reports


time (UTC)temp
F
wind
direction
speed
knots
gust
knots
rain 1hr
in
rain 24hr
in
rain mn
in
humidity
%
barometer
mb
20260503201247 64 302 4.3 6.1 0.00 0.00 0.00 31 1050.4
20260503200743 64 300 1.7 2.6 0.00 0.00 0.00 33 1050.6
20260503200239 64 323 3.5 7.0 0.00 0.00 0.00 31 1050.5
20260503195737 65 242 3.5 6.1 0.00 0.00 0.00 30 1050.8
20260503195233 64 226 1.7 3.5 0.00 0.00 0.00 38 1050.6
20260503194732 64 280 5.2 6.1 0.00 0.00 0.00 33 1050.8
20260503194226 63 275 1.7 6.1 0.00 0.00 0.00 35 1051.0
20260503193723 62 182 3.5 7.0 0.00 0.00 0.00 32 1050.8
20260503193219 63 213 5.2 8.7 0.00 0.00 0.00 30 1051.1
20260503192715 63 198 4.3 6.1 0.00 0.00 0.00 31 1051.1
20260503192210 63 297 4.3 8.7 0.00 0.00 0.00 31 1051.2
20260503191707 62 196 3.5 5.2 0.00 0.00 0.00 34 1051.4
20260503191204 62 261 2.6 8.7 0.00 0.00 0.00 36 1051.2
20260503190701 64 241 3.5 8.7 0.00 0.00 0.00 30 1051.2
20260503190158 63 300 3.5 5.2 0.00 0.00 0.00 33 1051.2
20260503185655 62 214 1.7 7.0 0.00 0.00 0.00 37 1051.5
20260503185150 62 156 3.5 5.2 0.00 0.00 0.00 31 1051.4
20260503184645 62 304 4.3 7.0 0.00 0.00 0.00 38 1051.7
20260503184142 61 213 6.1 7.8 0.00 0.00 0.00 33 1051.8
20260503183638 62 205 1.7 6.1 0.00 0.00 0.00 34 1051.6
20260503183136 61 177 2.6 5.2 0.00 0.00 0.00 33 1051.8
20260503182634 61 223 5.2 6.1 0.00 0.00 0.00 33 1052.0
20260503182132 61 206 2.6 6.1 0.00 0.00 0.00 33 1052.0
20260503181629 61 218 5.2 7.8 0.00 0.00 0.00 32 1052.1
20260503181125 62 200 4.3 5.2 0.00 0.00 0.00 28 1052.3
20260503180622 62 293 1.7 5.2 0.00 0.00 0.00 40 1052.5
20260503180120 61 274 1.7 5.2 0.00 0.00 0.00 37 1052.3
20260503175617 61 221 6.1 7.0 0.00 0.00 0.00 33 1052.5
20260503175114 61 131 1.7 2.6 0.00 0.00 0.00 41 1052.5
20260503174611 61 242 0.0 2.6 0.00 0.00 0.00 37 1052.4
20260503174108 60 240 2.6 3.5 0.00 0.00 0.00 37 1052.5
20260503173602 60 218 2.6 7.8 0.00 0.00 0.00 35 1052.8
20260503173059 60 280 3.5 5.2 0.00 0.00 0.00 34 1052.9
20260503172556 60 15 1.7 5.2 0.00 0.00 0.00 33 1052.9
20260503172054 61 232 1.7 8.7 0.00 0.00 0.00 31 1053.1
20260503171550 61 284 1.7 5.2 0.00 0.00 0.00 38 1053.1
20260503171047 59 245 0.9 5.2 0.00 0.00 0.00 34 1053.3
20260503170543 60 80 0.9 7.0 0.00 0.00 0.00 38 1053.2
20260503150936 58 158 1.7 3.5 0.00 0.00 0.00 33 1054.5
20260503150433 58 267 2.6 5.2 0.00 0.00 0.00 39 1054.3
20260503131326 51 223 0.0 0.9 0.00 0.00 0.00 66 1054.3
20260503130823 50 209 0.9 0.9 0.00 0.00 0.00 69 1054.4
20260503130321 50 217 0.9 0.9 0.00 0.00 0.00 67 1054.3
20260503110714 30 344 0.0 0.0 0.00 0.00 0.00 97 1053.5
20260503110211 30 344 0.0 0.0 0.00 0.00 0.00 97 1053.5
20260503100138 30 344 0.0 0.0 0.00 0.00 0.00 97 1053.2
20260503081532 31 344 0.0 0.0 0.00 0.00 0.00 97 1052.7
20260503081030 31 344 0.0 0.0 0.00 0.00 0.00 97 1052.7
20260503080526 31 344 0.0 0.0 0.00 0.00 0.00 97 1052.6
20260503072500 31 344 0.0 0.0 0.00 0.00 0.00 96 1052.5
20260503071957 31 344 0.0 0.0 0.00 0.00 0.00 96 1052.6
20260503071454 31 344 0.0 0.0 0.00 0.00 0.00 96 1052.6
20260503070949 31 344 0.0 0.0 0.00 0.00 0.00 96 1052.4
20260503070447 31 344 0.0 0.0 0.00 0.00 0.00 96 1052.6
20260503054900 33 344 0.0 0.0 0.00 0.00 0.00 96 1052.6
20260503054356 33 344 0.0 0.0 0.00 0.00 0.00 95 1052.6
20260503053854 33 344 0.0 0.0 0.00 0.00 0.00 95 1052.6
20260503053352 33 344 0.0 0.0 0.00 0.00 0.00 95 1052.6
20260503052848 33 344 0.0 0.0 0.00 0.00 0.00 95 1052.7
20260503052345 33 344 0.0 0.0 0.00 0.00 0.00 95 1052.7
20260503051841 33 344 0.0 0.0 0.00 0.00 0.00 95 1052.5
20260503051338 34 344 0.0 0.0 0.00 0.00 0.00 95 1052.7
20260503050835 34 344 0.0 0.0 0.00 0.00 0.00 95 1052.7
20260503050331 34 344 0.0 0.0 0.00 0.00 0.00 95 1052.4
20260503045829 34 344 0.0 0.0 0.00 0.00 0.00 95 1052.6
20260503045326 35 344 0.0 0.0 0.00 0.00 0.00 94 1052.4
20260503044822 35 344 0.0 0.0 0.00 0.00 0.00 94 1052.8
20260503044319 35 344 0.0 0.0 0.00 0.00 0.00 94 1052.5
20260503043817 35 344 0.0 0.0 0.00 0.00 0.00 94 1052.5
20260503043313 36 344 0.0 0.0 0.00 0.00 0.00 94 1052.6
20260503042809 36 344 0.0 0.0 0.00 0.00 0.00 94 1052.4
20260503042306 36 344 0.0 0.0 0.00 0.00 0.00 94 1052.3
20260503041802 36 344 0.0 0.0 0.00 0.00 0.00 93 1052.4
20260503041300 37 344 0.0 0.0 0.00 0.00 0.00 93 1052.5
20260503040758 37 344 0.0 0.0 0.00 0.00 0.00 93 1052.3
20260503040255 37 344 0.0 0.0 0.00 0.00 0.00 93 1052.0
20260503035752 37 344 0.0 0.0 0.00 0.00 0.00 93 1052.3
20260503035249 38 344 0.0 0.0 0.00 0.00 0.00 92 1052.2
20260503034746 38 344 0.0 0.0 0.00 0.00 0.00 92 1052.2
20260503034243 38 344 0.0 0.0 0.00 0.00 0.00 92 1052.2
20260503033740 39 344 0.0 0.0 0.00 0.00 0.00 92 1052.0
20260503033238 39 344 0.0 0.0 0.00 0.00 0.00 92 1052.0
20260503032736 39 344 0.0 0.0 0.00 0.00 0.00 91 1052.3
20260503032234 39 344 0.0 0.0 0.00 0.00 0.00 91 1051.9
20260503031731 40 343 0.0 0.0 0.00 0.00 0.00 91 1051.9
20260503031229 40 343 0.0 0.0 0.00 0.00 0.00 91 1052.0
20260503030725 40 343 0.0 0.0 0.00 0.00 0.00 92 1052.0
20260503030221 40 343 0.0 0.0 0.00 0.00 0.00 92 1051.9
20260503025719 40 343 0.0 0.0 0.00 0.00 0.00 92 1052.2
20260503025216 39 343 0.0 0.0 0.00 0.00 0.00 92 1052.1
20260503024713 39 343 0.0 0.0 0.00 0.00 0.00 91 1051.9
20260503024210 39 344 0.0 0.0 0.00 0.00 0.00 91 1051.8
20260503023707 39 344 0.0 0.0 0.00 0.00 0.00 91 1051.8
20260503023203 39 344 0.0 0.0 0.00 0.00 0.00 90 1051.6
20260503022700 39 344 0.0 0.0 0.00 0.00 0.00 89 1051.8
20260503022159 39 344 0.0 0.0 0.00 0.00 0.00 89 1051.5
20260503021656 40 344 0.0 0.0 0.00 0.00 0.00 89 1051.6
20260503021153 40 344 0.0 0.0 0.00 0.00 0.00 88 1051.5
20260503020650 40 344 0.0 0.0 0.00 0.00 0.00 86 1051.4
20260503020148 41 343 0.0 0.0 0.00 0.00 0.00 85 1051.4
20260503015644 42 343 0.0 0.0 0.00 0.00 0.00 84 1051.2
20260503015141 43 343 0.0 0.0 0.00 0.00 0.00 83 1051.1
20260503014637 43 343 0.0 0.0 0.00 0.00 0.00 80 1051.2
20260503014135 44 343 0.0 0.0 0.00 0.00 0.00 80 1051.0
20260503013632 45 343 0.0 0.0 0.00 0.00 0.00 81 1051.2
20260503013130 46 343 0.0 0.0 0.00 0.00 0.00 78 1051.0
20260503012627 46 343 0.0 0.0 0.00 0.00 0.00 75 1050.8
20260503012124 46 343 0.0 0.0 0.00 0.00 0.00 72 1050.7
20260503011620 46 343 0.0 0.0 0.00 0.00 0.00 73 1050.8
20260503011118 47 343 0.0 0.0 0.00 0.00 0.00 79 1050.8
20260503010614 47 343 0.0 0.0 0.00 0.00 0.00 72 1050.6
20260503010111 47 343 0.0 0.0 0.00 0.00 0.00 75 1050.6
20260503005608 47 343 0.0 0.0 0.00 0.00 0.00 71 1050.5
20260503005105 47 343 0.0 0.0 0.00 0.00 0.00 73 1050.5
20260503004601 48 343 0.0 0.0 0.00 0.00 0.00 71 1050.5
20260503004100 48 4 0.0 0.0 0.00 0.00 0.00 71 1050.5
20260503003556 48 4 0.0 0.0 0.00 0.00 0.00 69 1050.4
20260503003053 49 4 0.0 0.0 0.00 0.00 0.00 65 1050.3
20260503002550 49 4 0.0 0.0 0.00 0.00 0.00 62 1050.4
20260503002047 50 4 0.0 0.0 0.00 0.00 0.00 64 1050.4
20260503001543 50 3 0.9 0.9 0.00 0.00 0.00 60 1050.3
20260503001041 50 4 0.0 0.0 0.00 0.00 0.00 68 1049.9
20260503000538 50 4 0.0 0.0 0.00 0.00 0.00 68 1049.8
20260503000035 51 4 0.0 0.0 0.00 0.00 0.00 65 1049.9
20260502235531 51 4 0.0 0.0 0.00 0.00 0.00 63 1050.0
20260502235030 51 5 0.0 0.0 0.00 0.00 0.00 62 1050.2
20260502234525 52 337 0.0 0.0 0.00 0.00 0.00 59 1049.8
20260502234023 52 337 0.0 0.9 0.00 0.00 0.00 58 1049.9
20260502233518 53 319 0.0 1.7 0.00 0.00 0.00 54 1049.8
20260502233015 53 29 0.0 1.7 0.00 0.00 0.00 51 1049.8
20260502232511 54 83 0.9 0.9 0.00 0.00 0.00 58 1050.0
20260502232009 55 300 0.0 0.9 0.00 0.00 0.00 56 1049.8
20260502231505 55 283 2.6 3.5 0.00 0.00 0.00 51 1049.8
20260502231003 55 291 0.0 0.9 0.00 0.00 0.00 54 1049.9
20260502230501 55 279 0.9 1.7 0.00 0.00 0.00 54 1049.7
20260502225959 55 307 0.9 0.9 0.00 0.00 0.00 52 1049.8
20260502225455 56 328 0.9 1.7 0.00 0.00 0.00 52 1049.9
20260502224952 56 4 0.9 0.9 0.00 0.00 0.00 50 1049.7
20260502224448 56 291 0.9 0.9 0.00 0.00 0.00 53 1049.6
20260502223945 55 284 0.9 1.7 0.00 0.00 0.00 51 1050.2
20260502223443 55 298 1.7 1.7 0.00 0.00 0.00 54 1050.0
20260502222941 54 304 1.7 0.9 0.00 0.00 0.00 54 1050.1
20260502222438 54 303 0.9 1.7 0.00 0.00 0.00 54 1050.0
20260502221934 54 292 0.0 0.9 0.00 0.00 0.00 55 1049.8
20260502221430 54 302 0.0 0.9 0.00 0.00 0.00 55 1050.1
20260502220927 54 302 0.0 0.0 0.00 0.00 0.00 55 1049.9
20260502220423 54 301 0.9 0.9 0.00 0.00 0.00 53 1050.1
20260502215920 54 308 0.9 1.7 0.00 0.00 0.00 52 1050.0
20260502215417 54 298 0.9 0.9 0.00 0.00 0.00 56 1050.0
20260502214914 54 298 0.9 1.7 0.00 0.00 0.00 56 1049.9
20260502214411 55 319 0.9 0.9 0.00 0.00 0.00 56 1049.7
20260502213908 54 324 0.0 0.9 0.00 0.00 0.00 53 1049.7
20260502213405 54 327 0.9 0.9 0.00 0.00 0.00 55 1049.7
20260502212904 54 332 0.9 1.7 0.00 0.00 0.00 55 1049.8
20260502212402 54 293 0.0 0.9 0.00 0.00 0.00 52 1049.9
20260502211859 55 296 0.9 1.7 0.00 0.00 0.00 50 1050.0
20260502211359 55 314 0.9 0.9 0.00 0.00 0.00 53 1049.8
20260502210857 55 291 0.9 2.6 0.00 0.00 0.00 51 1049.8
20260502210354 56 309 1.7 3.5 0.00 0.00 0.00 49 1049.8
20260502205852 57 297 1.7 2.6 0.00 0.00 0.00 52 1049.6
20260502205347 56 297 1.7 2.6 0.00 0.00 0.00 50 1049.7
20260502204844 57 289 1.7 2.6 0.00 0.00 0.00 50 1049.8
20260502204342 57 346 0.9 0.9 0.00 0.00 0.00 52 1049.9
20260502203839 58 296 0.9 1.7 0.00 0.00 0.00 51 1049.8
20260502203337 56 288 0.9 0.9 0.00 0.00 0.00 49 1049.7
20260502202832 56 302 0.9 1.7 0.00 0.00 0.00 49 1049.8
20260502202330 55 13 0.9 1.7 0.00 0.00 0.00 49 1050.1
20260502201827 55 307 1.7 3.5 0.00 0.00 0.00 49 1050.0